OBJECT M, 42836

Orbit data source: Space-Track

You're viewing an Uncataloged Satellite

Recently launched and/or uncataloged satellites may have evolving metadata. Metadata may include but not limited to: Owner, Maufacturer, Bus, Motor, and Mission.

OBJECT M, 42836 is a satellite in SSO that was launched on Fri, 14 Jul 2017 UTC via a SOYUZ-2-1A launch vehicle from the Tyuratam Missile And Space Complex (TTMTR). Unknown objects in Earth's orbit typically refer to objects detected orbiting the Earth but have not yet been identified or cataloged. These objects could be anything from previously untracked satellites, spent rocket stages, debris from satellite collisions, or even natural meteoroids temporarily captured by Earth's gravity.

Loading next visibility...
Identifier
42836, 2017-042M
Orbit
SSO
Country
Flag of TBDTBD
Related business
None
Manufacturer
Unknown
Mission
Non-operational Civil Technology
Bus & Motor
Unknown
Mass
Unknown
Launch date (UTC)
2017-07-14 (9 years ago)
Launch vehicle
SOYUZ-2-1A
Launch site
Tyuratam Missile And Space Complex (TTMTR)
Object type
Unknown
Shape & HBR
Box + 2 Pan, 0.2 m
Radar Cross Section
0.092 m², Medium (>0.1 m² and < 1m²)

Expand to show TLE details & history
Last TLE update: 11 hours ago

TLE from 11 hours ago
0 OBJECT M
1 42836U 17042M   26132.96086469  .00002150  00000-0  14122-3 0  9990
2 42836  97.4224 296.0957 0003493 196.8864 163.2249 15.08637534481701
Epoch: 2026-05-12T23:03Z
TLE epoch observation values (Epoch: 2026-05-12T23:03:38.709Z)
Latitude
-0.00003°
Longitude
79.45668°
Altitude
545.751 km
Speed
7.588 km/s
True Right ascension
19h 44m 22s
True Declination
0° 00' 00"
Sunlit
Object was in daylight at epoch
Visualization orbit readout
Latitude
Unknown
Longitude
Unknown
Altitude
Unknown
Speed
Unknown
Apparent Right ascension
Unknown
Apparent Declination
Unknown
Sunlit
N/A
Visualization observer readout
Local Sidereal Time
18:33:27
Azimuth
Unknown
Elevation
Unknown
Doppler factor
Unknown
Orbital elements
Apogee altitude
539.76 km
Perigee altitude
534.928 km
Semi-major axis
6,915.481 km
Eccentricity
0.00035
Inclination
97.4224°
RAAN
296.0957°
Arg. of periapsis
196.8864°
True anomaly
163.23645°
Mean anomaly
163.2249°
Eccentric anomaly
163.23067°
Mean motion
3.77407 °/min
Orbital period
95.39 mins
BSTAR
0.00014122
Loading maneuver chart data...
Computing Atmospheric mass density...
Loading historical data...
Loading historical data...
Loading historical data...
Loading historical data...
Loading historical data...
Loading historical data...
Loading historical data...

Documentation

Showing up to 5 results
|